Regional Weather Roundup
Issued by NWS Cleveland, OH

Home | Current Version | Previous Version | Graphics & Text | Print | Product List | Glossary On
Versions: 1 2 3 4 5 6 7 8 9 10 11 12 13 14 15 16 17 18 19 20 21 22 23 24 25 26 27 28 29 30 31 32 33 34 35 36 37 38 39 40 41 42 43 44 45 46 47 48 49 50
000
ASUS41 KCLE 230510
RWRCLE
OHIO REGIONAL WEATHER ROUNDUP
NATIONAL WEATHER SERVICE WILMINGTON, OH
100 AM EDT WED AUG 23 2017

NOTE: "FAIR" INDICATES FEW OR NO CLOUDS BELOW 12,000 FEET WITH NO
SIGNIFICANT WEATHER AND/OR OBSTRUCTIONS TO VISIBILITY.

OHZ001>008-015>018-024>027-034-035-043-044-230600-
   NORTHWEST OHIO

CITY           SKY/WX    TMP DP  RH WIND       PRES   REMARKS
DEFIANCE       FAIR      61  53  75 W3        29.96R
FINDLAY        FAIR      63  53  70 W7        29.95R
TOLEDO EXPRESS FAIR      61  55  81 W7        29.94R
TOLEDO EXEC    FAIR      61  55  81 W6        29.94R
LIMA           FAIR      60  58  92 NW6       29.97R
$$

OHZ009>014-019>023-028>033-038-089-230600-
   NORTHEAST OHIO

CITY           SKY/WX    TMP DP  RH WIND       PRES   REMARKS
CLE-HOPKINS    MOCLDY    69  63  81 NW7       29.91R
CLE-LAKEFRONT  CLOUDY    71  60  68 N12       29.88R
CUY CO. ARPT   NOT AVBL
LORAIN-ELYRIA  MOCLDY    67  54  63 N6        29.92R
ASHTABULA      MOCLDY    65  60  84 CALM      29.89S
AKRON-CANTON   FAIR      67  63  87 W6        29.91R
WOOSTER        FAIR      64  62  93 NW7       29.92R
MANSFIELD      FAIR      63  60  90 W7        29.94R
YOUNGSTOWN     FAIR      65  63  93 CALM      29.89R
$$

OHZ042-051>053-060>062-070>072-077>081-230600-
  SOUTHWEST OHIO

CITY           SKY/WX    TMP DP  RH WIND       PRES   REMARKS
CINC-COVINGTON MOCLDY    71  67  87 N9        29.97R
CINC-LUNKEN    FAIR      73  66  78 N9        29.96R
HAMILTON       FAIR      70  65  84 NW7       29.97R
DAYTON         FAIR      64  60  87 NW8       29.98R
WRIGHT-PAT AFB FAIR      69  61  76 N8        29.96R
DAYTON GENERAL FAIR      70  63  78 NW6       29.96R
WILMINGTON     FAIR      69  66  90 NW7       29.96R
$$

OHZ036-037-039>041-045>050-054>059-063>069-073>076-082>088-230600-
  CENTRAL AND SOUTHEAST OHIO

CITY           SKY/WX    TMP DP  RH WIND       PRES   REMARKS
COLUMBUS       FAIR      71  63  75 NW12      29.93R
OSU AIRPORT    FAIR      68  61  78 NW10      29.95R
BOLTON FIELD   FAIR      68  61  77 N8        29.96R
RICKENBACK AFB CLOUDY    70  63  79 NW10G16   29.94R
NEWARK         MOCLDY    70  64  81 NW8       29.93R
MARION         FAIR      64  57  78 NW9       29.96R
LANCASTER      FAIR      70  64  81 NW8       29.94R
ZANESVILLE     FAIR      71  65  81 NW6       29.92R
NEW PHILLY     CLOUDY    69  64  84 W7        29.91R
$$




USA.gov is the U.S. government's official web portal to all federal, state and local government web resources and services.